Location: Goettingen
(51.5300°N, 9.9433°E)
Time: 04:36:08
(UTC+01:00)

ISS - Pass Details

Date: 27 November 2021
Orbit: 417 x 423 km, 51.6° (Epoch: 29 November)

Event Time Altitude Azimuth Distance (km) Brightness Sun altitude
Rises 18:37:27 0° 268° (W) 2,379 1.6 -21.0°
Reaches altitude 10° 18:39:33 10° 269° (W) 1,514 0.2 -21.3°
Enters shadow 18:42:31 65° 278° (W) 469 -3.4 -21.8°
